Weather History for Savanna, IL

Change the Weather History Date:

Wednesday, January 2, 2013

  Actual Average (KCWI) Record (KCWI)
Temperature  
Mean Temperature 16 °F -  
Max Temperature 27 °F 30 °F 57 °F (2000)
Min Temperature 4 °F 13 °F -23 °F (1979)
Degree Days  
Heating Degree Days 50    
Moisture  
Dew Point 11 °F    
Average Humidity 77    
Maximum Humidity 87    
Minimum Humidity 66    
Precipitation  
Precipitation 0.00 in - - ()
Sea Level Pressure  
Sea Level Pressure 30.12 in    
Wind  
Wind Speed 5 mph (South)    
Max Wind Speed 12 mph    
Max Gust Speed -    
Visibility 10 miles    
Events      
Averages and records for this station are not official NWS values.
T = Trace of Precipitation, MM = Missing Value Source: NWS Daily Summary

Daily Weather History Graph

Daily Weather History Graph

Search for Another Location

Airport:

Trip Planner

Search our weather history database for the weather conditions in past years. The results will help you decide how hot, cold, wet, or windy it might be!

Date:

Astronomy

Jan. 02, 2013 Rise Set
Actual Time 7:28 AM CST 4:40 PM CST
Civil Twilight 6:57 AM CST 5:12 PM CST
Nautical Twilight 6:22 AM CST 5:47 PM CST
Astronomical Twilight 5:48 AM CST 6:21 PM CST
Moon 10:19 PM CST (1/2) 10:05 AM CST (1/2)
Length of Visible Light 10h 15m
Length of Day
9h 12m
Waning Gibbous, 75% of the Moon is Illuminated
Jan 2
Waning Gibbous
Jan 4
Last Quarter
Jan 11
New
Jan 18
First Quarter
Jan 26
Full

Hourly Weather History & Observations

Time (CST) Temp. Windchill Dew Point Humidity Pressure Visibility Wind Dir Wind Speed Gust Speed Precip Events Conditions
12:15 AM 5.7 °F -3.2 °F 1.0 °F 81% 30.19 in 10.0 mi South 4.6 mph - N/A   Overcast
12:35 AM 10.0 °F 3.6 °F 4.8 °F 79% 30.18 in 10.0 mi SSW 3.5 mph - N/A   Overcast
12:55 AM 10.0 °F - 4.5 °F 78% 30.18 in 10.0 mi Calm Calm - N/A   Overcast
1:15 AM 10.9 °F 2.9 °F 5.9 °F 80% 30.19 in 10.0 mi South 4.6 mph - N/A   Overcast
1:35 AM 10.8 °F 1.2 °F 5.9 °F 81% 30.20 in 10.0 mi South 5.8 mph - N/A   Overcast
1:55 AM 11.1 °F 1.7 °F 5.0 °F 76% 30.20 in 10.0 mi South 5.8 mph - N/A   Overcast
2:15 AM 10.9 °F 2.9 °F 4.3 °F 75% 30.20 in 10.0 mi South 4.6 mph - N/A   Overcast
2:35 AM 10.4 °F 2.2 °F 3.9 °F 75% 30.19 in 10.0 mi South 4.6 mph - N/A   Overcast
2:55 AM 7.5 °F -2.6 °F 3.2 °F 82% 30.19 in 10.0 mi SSE 5.8 mph - N/A   Scattered Clouds
3:15 AM 6.4 °F -2.4 °F 2.3 °F 83% 30.19 in 10.0 mi SSE 4.6 mph - N/A   Clear
3:35 AM 6.3 °F -4.1 °F 2.3 °F 84% 30.18 in 10.0 mi SE 5.8 mph - N/A   Clear
3:55 AM 5.9 °F -3.0 °F 1.9 °F 84% 30.17 in 10.0 mi SSE 4.6 mph - N/A   Clear
4:15 AM 5.2 °F -6.7 °F 0.9 °F 82% 30.17 in 10.0 mi South 6.9 mph - N/A   Clear
4:35 AM 5.7 °F -3.2 °F 1.6 °F 83% 30.16 in 10.0 mi SSE 4.6 mph - N/A   Clear
4:55 AM 6.1 °F - 1.9 °F 83% 30.16 in 10.0 mi Calm Calm - N/A   Clear
5:15 AM 5.9 °F -1.1 °F 1.9 °F 84% 30.16 in 10.0 mi SE 3.5 mph - N/A   Clear
5:35 AM 6.3 °F -0.7 °F 2.1 °F 83% 30.16 in 10.0 mi SE 3.5 mph - N/A   Mostly Cloudy
6:15 AM 5.5 °F - 1.6 °F 84% 30.16 in 10.0 mi Calm Calm - N/A   Overcast
6:35 AM 6.6 °F -0.3 °F 2.8 °F 84% 30.16 in 10.0 mi SSE 3.5 mph - N/A   Scattered Clouds
6:55 AM 4.5 °F -2.7 °F 0.9 °F 85% 30.16 in 10.0 mi ESE 3.5 mph - N/A   Scattered Clouds
7:15 AM 5.2 °F - 1.9 °F 86% 30.16 in 10.0 mi Calm Calm - N/A   Scattered Clouds
7:35 AM 6.6 °F -3.7 °F 3.4 °F 87% 30.16 in 10.0 mi SSE 5.8 mph - N/A   Scattered Clouds
7:55 AM 7.7 °F -0.9 °F 3.0 °F 81% 30.16 in 10.0 mi SSE 4.6 mph - N/A   Clear
8:15 AM 7.7 °F -0.9 °F 2.5 °F 79% 30.16 in 10.0 mi SSE 4.6 mph - N/A   Clear
8:35 AM 8.2 °F -3.0 °F 3.0 °F 79% 30.15 in 10.0 mi SSE 6.9 mph - N/A   Clear
8:55 AM 10.4 °F 2.2 °F 4.1 °F 76% 30.14 in 10.0 mi SSE 4.6 mph - N/A   Clear
9:15 AM 12.2 °F 4.3 °F 5.7 °F 75% 30.13 in 10.0 mi SSE 4.6 mph - N/A   Clear
9:35 AM 15.3 °F 2.0 °F 7.3 °F 71% 30.13 in 10.0 mi South 11.5 mph - N/A   Clear
9:55 AM 16.7 °F 3.8 °F 7.5 °F 67% 30.13 in 10.0 mi South 11.5 mph - N/A   Clear
10:15 AM 17.2 °F 5.2 °F 8.2 °F 68% 30.13 in 10.0 mi SSE 10.4 mph - N/A   Clear
10:35 AM 18.1 °F 6.3 °F 9.0 °F 67% 30.13 in 10.0 mi South 10.4 mph - N/A   Clear
10:55 AM 19.2 °F 8.4 °F 10.4 °F 69% 30.12 in 10.0 mi South 9.2 mph - N/A   Clear
11:15 AM 20.1 °F 9.5 °F 10.4 °F 66% 30.11 in 10.0 mi South 9.2 mph - N/A   Clear
11:35 AM 21.0 °F 13.4 °F 11.3 °F 66% 30.11 in 10.0 mi South 5.8 mph - N/A   Clear
11:55 AM 21.4 °F 12.8 °F 11.8 °F 67% 30.10 in 10.0 mi South 6.9 mph - N/A   Clear
12:15 PM 22.3 °F 14.9 °F 12.9 °F 67% 30.09 in 10.0 mi South 5.8 mph - N/A   Clear
12:35 PM 23.0 °F 14.7 °F 13.5 °F 67% 30.07 in 10.0 mi South 6.9 mph - N/A   Clear
12:55 PM 23.7 °F 14.0 °F 14.4 °F 67% 30.07 in 10.0 mi South 9.2 mph - N/A   Clear
1:15 PM 23.9 °F 16.8 °F 14.7 °F 68% 30.06 in 10.0 mi South 5.8 mph - N/A   Clear
1:35 PM 24.8 °F 16.1 °F 15.4 °F 68% 30.05 in 10.0 mi South 8.1 mph - N/A   Clear
1:55 PM 25.5 °F 17.8 °F 16.2 °F 68% 30.05 in 10.0 mi South 6.9 mph - N/A   Clear
2:15 PM 26.1 °F 18.4 °F 16.2 °F 66% 30.05 in 10.0 mi SSW 6.9 mph - N/A   Clear
2:35 PM 26.8 °F 20.2 °F 16.7 °F 66% 30.05 in 10.0 mi SW 5.8 mph - N/A   Clear
2:55 PM 26.6 °F 19.1 °F 17.2 °F 68% 30.06 in 10.0 mi WSW 6.9 mph - N/A   Scattered Clouds
3:15 PM 26.6 °F 19.1 °F 17.6 °F 69% 30.06 in 10.0 mi SW 6.9 mph - N/A   Mostly Cloudy
3:35 PM 27.1 °F 20.7 °F 17.8 °F 68% 30.06 in 10.0 mi SW 5.8 mph - N/A   Mostly Cloudy
3:55 PM 27.0 °F 23.0 °F 18.0 °F 69% 30.05 in 10.0 mi SW 3.5 mph - N/A   Scattered Clouds
4:15 PM 27.0 °F 23.0 °F 18.3 °F 70% 30.06 in 10.0 mi WSW 3.5 mph - N/A   Clear
4:35 PM 26.6 °F 22.6 °F 18.1 °F 70% 30.06 in 10.0 mi WSW 3.5 mph - N/A   Clear
4:55 PM 26.2 °F - 18.3 °F 72% 30.07 in 10.0 mi Calm Calm - N/A   Clear
5:15 PM 24.8 °F - 18.1 °F 76% 30.07 in 10.0 mi Calm Calm - N/A   Clear
5:35 PM 22.8 °F - 17.4 °F 80% 30.07 in 10.0 mi Calm Calm - N/A   Mostly Cloudy
5:55 PM 23.0 °F - 17.6 °F 80% 30.07 in 10.0 mi Calm Calm - N/A   Overcast
6:35 PM 21.6 °F - 17.2 °F 83% 30.08 in 10.0 mi Calm Calm - N/A   Overcast
6:55 PM 21.9 °F 17.2 °F 17.6 °F 83% 30.08 in 10.0 mi SSE 3.5 mph - N/A   Overcast
7:15 PM 22.1 °F - 18.3 °F 85% 30.08 in 10.0 mi Calm Calm - N/A   Overcast
7:35 PM 22.8 °F 18.2 °F 18.9 °F 85% 30.07 in 10.0 mi SSE 3.5 mph - N/A   Overcast
7:55 PM 23.7 °F 17.8 °F 20.3 °F 87% 30.07 in 10.0 mi South 4.6 mph - N/A   Overcast
8:15 PM 24.4 °F 20.1 °F 20.7 °F 86% 30.07 in 10.0 mi South 3.5 mph - N/A   Overcast
8:35 PM 24.8 °F 20.5 °F 21.2 °F 86% 30.07 in 10.0 mi South 3.5 mph - N/A   Overcast
8:55 PM 25.3 °F 21.1 °F 21.2 °F 84% 30.07 in 10.0 mi South 3.5 mph - N/A   Overcast
9:15 PM 25.9 °F 19.2 °F 22.1 °F 86% 30.07 in 10.0 mi SW 5.8 mph - N/A   Overcast
9:35 PM 27.5 °F 19.3 °F 21.9 °F 80% 30.07 in 10.0 mi WSW 8.1 mph - N/A   Overcast
9:55 PM 27.1 °F 18.9 °F 21.2 °F 78% 30.09 in 10.0 mi West 8.1 mph - N/A   Overcast
10:15 PM 26.6 °F 18.2 °F 21.0 °F 79% 30.09 in 10.0 mi WSW 8.1 mph - N/A   Overcast
10:35 PM 26.4 °F 18.9 °F 21.2 °F 81% 30.09 in 10.0 mi WSW 6.9 mph - N/A   Overcast
10:55 PM 26.1 °F 19.4 °F 21.0 °F 81% 30.09 in 10.0 mi WSW 5.8 mph - N/A   Scattered Clouds
11:15 PM 26.2 °F 19.6 °F 21.2 °F 81% 30.10 in 10.0 mi West 5.8 mph - N/A   Mostly Cloudy
11:35 PM 26.4 °F 20.9 °F 21.2 °F 81% 30.10 in 10.0 mi WSW 4.6 mph - N/A   Overcast
11:55 PM 26.4 °F 19.8 °F 21.6 °F 82% 30.10 in 10.0 mi WSW 5.8 mph - N/A   Overcast